Location: Vihti�l�
(61.3833°N, 23.0667°E)
Time: 05:50:50
(UTC+00:00)

CZ-4B R/B - Pass Details

Date: 29 November 2020
Orbit: 485 x 652 km, 97.9° (Epoch: 22 January)

Event Time Altitude Azimuth Distance (km) Brightness Sun altitude
Rises 03:29:30 0° 18° (NNE) 2,990 6.8 -24.3°
Reaches altitude 10° 03:31:49 10° 25° (NNE) 2,078 6.0 -24.1°
Maximum altitude 03:36:12 45° 98° (E) 900 4.3 -23.5°
Drops below altitude 10° 03:40:30 10° 172° (S) 2,041 5.8 -23.0°
Sets 03:42:46 0° 179° (S) 2,931 6.6 -22.8°
